Other Public Products
Issued by NWS Grand Forks, ND

Home | Current Version | Previous Version | Graphics & Text | Print | Product List | Glossary On
Versions: 1 2 3 4 5 6 7 8 9 10 11 12 13 14 15 16 17 18 19 20 21 22 23 24 25 26 27 28 29 30 31 32 33 34 35 36 37 38 39 40 41 42 43 44 45 46 47 48 49 50
540
FPUS83 KFGF 091831
OPUFGF
PRAIRIE TO PINES WEATHER ROUNDUP
NATIONAL WEATHER SERVICE EASTERN NORTH DAKOTA/GRAND FORKS ND
1200 PM CST FRI DEC 09 2016

 **SATELLITE DATA USED TO AUGMENT SKY COVER AT AUTOMATED STATIONS**
 *****  WEATHER ACROSS EASTERN NORTH DAKOTA  *****

CITY           SKY/WX    TMP DP  RH WIND       PRES   REMARKS
GRAND FORKS    CLOUDY     2  -5  72 NW12      30.59F WCI -15
6HR MIN TEMP:   2; 6HR MAX TEMP:   5;

GRAND FORKS AF CLOUDY     0  -9  65 NW12      30.59F WCI -17
GRAND CITY NWS NOT AVBL
BUXTON           N/A     33  29  87 NW9         N/A  WCI  25
DEVILS LAKE    SUNNY     -6 -11  79 NW9       30.55S WCI -23
6HR MIN TEMP: -12; 6HR MAX TEMP:  -5; 6HR PCP: TRACE;

FARGO          MOSUNNY    5  -4  66 NW10      30.58F WCI -10
6HR MIN TEMP:   4; 6HR MAX TEMP:   8;

WAHPETON ARPT  CLOUDY     7   0  72 W7        30.58F WCI  -5
$$

 *****  WEATHER ACROSS CENTRAL AND WESTERN NORTH DAKOTA  *****

CITY           SKY/WX    TMP DP  RH WIND       PRES   REMARKS
JAMESTOWN      SUNNY     -3  -8  79 NW12      30.54F WCI -21
6HR MIN TEMP: -11; 6HR MAX TEMP:  -3;

BISMARCK       PTSUNNY    1  -6  72 NW7       30.57F WCI -12
6HR MIN TEMP: -17; 6HR MAX TEMP:   0;

MINOT          SUNNY     -9 -15  75 W12       30.56F WCI -28
6HR MIN TEMP: -13; 6HR MAX TEMP:  -8;

MINOT AFB      SUNNY    -12 -17  76 NW12      30.56F WCI -32
6HR MIN TEMP: -17; 6HR MAX TEMP: -12;

GARRISON         N/A     -6 -12  75 NW15      30.54S WCI -27
6HR MIN TEMP: -17; 6HR MAX TEMP:  -6;

WILLISTON      MOSUNNY   -5 -11  75 NE6       30.57F WCI -18
6HR MIN TEMP: -17; 6HR MAX TEMP:  -5;

DICKINSON      NOT AVBL
HETTINGER      CLOUDY    -5  -9  83 CALM      30.46F
6HR MIN TEMP: -16; 6HR MAX TEMP:  -5;

$$

 *****  OTHER OBSERVATIONS NORTHEAST NORTH DAKOTA  *****

CITY           SKY/WX    TMP DP  RH WIND       PRES   REMARKS
WALHALLA         N/A     -2  -2 100 W7        30.57F WCI -16
LANGDON        FAIR      -8 -15  71 W10       30.50F WCI -26
CAVALIER         N/A     -2  -9  71 NW9       30.58F WCI -18
GRAFTON        CLOUDY     0  -9  65 NW14      30.60F WCI -19
CANDO          FAIR      -4 -11  71 W10       30.56F WCI -21
FORT TOTTEN      N/A      0  -5  78 W5        29.95S WCI -10
ROLLA          CLOUDY    -8 -13  77 NW13      30.49F WCI -28
RUGBY            N/A    N/A N/A N/A W8        30.55F
 ***** THE ABOVE OBSERVATIONS ARE NON NWS ARE NOT QUALITY
        CONTROLLED AND MAY MIS-REPORT RAIN FOR SNOW...
$$

 *****  OTHER OBSERVATIONS SOUTHEAST NORTH DAKOTA *****

CITY           SKY/WX    TMP DP  RH WIND       PRES   REMARKS
COOPERSTOWN    FAIR      -2  -8  78 W8        30.54F WCI -17
VALLEY CITY    FAIR       0  -4  85 NW9       30.56F WCI -16
OAKES          NOT AVBL
GWINNER        FAIR       9   1  72 NW13      30.56F WCI  -7
SHEYENNE NWR     N/A      5  -5  62 NW7       29.95S WCI  -7
BUFFALO          N/A      0  -7  73 N10         N/A  WCI -16
WYNDMERE         N/A      7   0  72 NW9         N/A  WCI  -7
 ***** THE ABOVE OBSERVATIONS ARE NON NWS ARE NOT QUALITY
       CONTROLLED AND MAY MIS-REPORT RAIN FOR SNOW...
$$

  *****  WEATHER ACROSS NORTHERN MINNESOTA  *****

CITY           SKY/WX    TMP DP  RH WIND       PRES   REMARKS
FLAG ISLAND    CLOUDY     3   0  85 W9G16     30.48S WCI -11
WARROAD        CLOUDY     3  -6  66 SW7       30.51S WCI  -9
ROSEAU         CLOUDY     3  -4  72 NW8       30.52F WCI -10
HALLOCK        CLOUDY     3  -2  78 NW7       30.57F HAZE    WCI  -9
THF RVR FALLS  FLURRIES   7   2  80 NW7       30.54F WCI  -5
6HR MIN TEMP:   6; 6HR MAX TEMP:   8; 6HR PCP: TRACE;

HALSTAD          N/A      1  -6  71 NW5         N/A  WCI  -8
FOSSTON        CLOUDY     7   0  72 W8        30.51F WCI  -6
BAUDETTE       CLOUDY     4  -6  63 W13G21    30.47F WCI -13
6HR MIN TEMP:   2; 6HR MAX TEMP:   4; 6HR PCP: TRACE;

WASKISH        CLOUDY     9   1  72 NW7       30.48F WCI  -3
CROOKSTON      CLOUDY     7   1  78 NW8       30.57F WCI  -6
$$
  *****  WEATHER ACROSS CENTRAL AND WEST MINNESOTA  *****

CITY           SKY/WX    TMP DP  RH WIND       PRES   REMARKS
BEMIDJI        CLOUDY     7  -2  67 W10       30.47F WCI  -8
PARK RAPIDS    FLURRIES   9  -1  64 NW8       30.47F WCI  -3
6HR MIN TEMP:   7; 6HR MAX TEMP:   9; 6HR PCP: TRACE;

WADENA         CLOUDY     9   0  66 W8        30.49F WCI  -4
DETROIT LAKES  LGT SNOW   9   3  78 NW10      30.51F WCI  -6
MOORHEAD       SUNNY      3  -2  78 NW8       30.57F WCI -10
FERGUS FALLS   CLOUDY     5   0  78 W7        30.60F HAZE    WCI  -7
ELBOW LAKE     CLOUDY     4   0  83 W8        30.55F WCI  -9
MORRIS MN      MOSUNNY    7  -2  66 W6        30.54F WCI  -3
STAPLES        CLOUDY     9   1  72 W8        30.49F WCI  -4
WHEATON        CLOUDY     9   1  72 NW7       30.59F WCI  -3
$$
  *****  WEATHER ELSEWHERE ACROSS MINNESOTA  *****

CITY           SKY/WX    TMP DP  RH WIND       PRES   REMARKS
DULUTH         CLOUDY     9   1  70 NW12      30.43F WCI  -6
6HR MIN TEMP:   8; 6HR MAX TEMP:  12;

INTRNTL FALLS  LGT SNOW   6  -3  66 W13       30.46F WCI -10
6HR MIN TEMP:   5; 6HR MAX TEMP:   7; 6HR PCP:  0.01;

ELY            CLOUDY     7   0  72 W9        30.40F WCI  -7
CLOQUET        CLOUDY    10   1  67 NW8       30.45F WCI  -1
BRAINERD       FLURRIES  10   3  73 W9        30.50F WCI  -3
6HR MIN TEMP:   8; 6HR MAX TEMP:  11; 6HR PCP: TRACE;

HIBBING        LGT SNOW   4  -3  73 NW10      30.46S WCI -11
6HR MIN TEMP:   4; 6HR MAX TEMP:   6; 6HR PCP: TRACE;

ALEXANDRIA     CLOUDY   N/A N/A N/A W8        30.51F
SAINT CLOUD    CLOUDY    13   7  77 W7        30.53F WCI   3
6HR MIN TEMP:   5; 6HR MAX TEMP:  13;

MINNEAPOLIS    PTSUNNY   17   8  67 SW9       30.54F WCI   6
6HR MIN TEMP:  13; 6HR MAX TEMP:  17; 6HR PCP: TRACE;

$$

  *****  WEATHER ACROSS SOUTH DAKOTA  *****

CITY           SKY/WX    TMP DP  RH WIND       PRES   REMARKS
SIOUX FALLS    CLOUDY    11   4  73 VRB3      30.53F
6HR MIN TEMP:  -1; 6HR MAX TEMP:  12;

BROOKINGS      CLOUDY     5   0  79 VRB5      30.51F WCI  -4
WATERTOWN      MOSUNNY    3  -2  79 NW9       30.50F WCI -12
6HR MIN TEMP:  -5; 6HR MAX TEMP:   3;

HURON          CLOUDY     6  -1  73 VRB3      30.57F
6HR MIN TEMP:  -4; 6HR MAX TEMP:   6;

SISSETON         N/A      6  -1  73 NW10      30.56F WCI  -9
ABERDEEN       PTSUNNY    6  -5  60 NW7       30.58F WCI  -6
6HR MIN TEMP:  -7; 6HR MAX TEMP:   6;

MITCHELL       LGT SNOW   9   3  77 N5        30.56F WCI   1
PIERRE         LGT SNOW   5  -1  76 NE9       30.50F WCI  -9
6HR MIN TEMP:   2; 6HR MAX TEMP:   5; 6HR PCP: TRACE;

MOBRIDGE       CLOUDY     3  -4  72 N9        30.51F HAZE    WCI -12
RAPID CITY     FLURRIES   1  -4  79 N10       30.35S WCI -15
6HR MIN TEMP:  -2; 6HR MAX TEMP:   3; 6HR PCP:  0.01;

$$

  *****  SOME WEATHER IN NEARBY STATES *****

CITY           SKY/WX    TMP DP  RH WIND       PRES   REMARKS
GLASGOW MT     SUNNY     -2  -7  79 SE12      30.50F WCI -20
6HR MIN TEMP:  -5; 6HR MAX TEMP:  -2;

GREAT FALLS MT LGT SNOW   0  -6  76 VRB3      30.27F
6HR MIN TEMP:  -3; 6HR MAX TEMP:   0; 6HR PCP:  0.04;

CHEYENNE WY    SUNNY     42  25  50 W15G25    30.05F
6HR MIN TEMP:  12; 6HR MAX TEMP:  42;

SCOTTSBLUFF NE SUNNY     23   9  55 N6        30.18S WCI  16
6HR MIN TEMP:  15; 6HR MAX TEMP:  24;

OMAHA NE       CLOUDY    18   8  65 S6        30.59F WCI  10
6HR MIN TEMP:   7; 6HR MAX TEMP:  18;

DES MOINES IA  CLOUDY    20   9  62 CALM      30.59F
6HR MIN TEMP:   9; 6HR MAX TEMP:  21;

DAVENPORT IA   SUNNY     22  14  71 W7        30.57F WCI  13
6HR MIN TEMP:  16; 6HR MAX TEMP:  22;

CHICAGO IL     FLURRIES  25  14  63 NW12      30.51F WCI  14
6HR MIN TEMP:  22; 6HR MAX TEMP:  25; 6HR PCP: TRACE;

EAU CLAIRE WI  CLOUDY    17  12  80 SW9       30.51F WCI   6
6HR MIN TEMP:   8; 6HR MAX TEMP:  18;

LA CROSSE WI   MOSUNNY   24  12  60 W6        30.54F WCI  17
6HR MIN TEMP:  19; 6HR MAX TEMP:  24;

$$

  *****  SOME NATIONAL WEATHER *****

CITY           SKY/WX    TMP DP  RH WIND       PRES   REMARKS
LA GUARDIA NY  MOSUNNY   41  17  38 NW25G32   30.08F
6HR MIN TEMP:  34; 6HR MAX TEMP:  42;

RALEIGH NC     SUNNY     38  13  35 N9        30.38F
6HR MIN TEMP:  29; 6HR MAX TEMP:  39;                             C1F1C2F2C3F3C4F4C5F5C6F6C7F7C8F8C9F9CaFaCbFbCcFcCdFdCe!



USA.gov is the U.S. government's official web portal to all federal, state and local government web resources and services.